Time,TemperatureF,DewpointF,PressureIn,WindDirection,WindDirectionDegrees,WindSpeedMPH,WindSpeedGustMPH,Humidity,HourlyPrecipIn,Conditions,Clouds,dailyrainin,SoftwareType,DateUTC
2013-10-01 00:00:00,66.3,52.0,29.59,SE,144,0.0,9.0,60,0.00,,,0.00,VWS V14.01,2013-10-01 05:00:00,
2013-10-01 00:05:00,66.3,52.0,29.59,SSW,203,0.0,5.0,60,0.00,,,0.00,VWS V14.01,2013-10-01 05:05:00,
2013-10-01 00:10:00,66.3,52.0,29.58,East,83,3.0,7.0,60,0.00,,,0.00,VWS V14.01,2013-10-01 05:10:00,
2013-10-01 00:15:00,66.2,51.9,29.59,NNE,27,0.0,7.0,60,0.00,,,0.00,VWS V14.01,2013-10-01 05:15:00,
2013-10-01 00:20:00,66.2,51.9,29.59,SE,132,0.0,7.0,60,0.00,,,0.00,VWS V14.01,2013-10-01 05:20:00,
2013-10-01 00:25:00,66.1,51.8,29.59,SSW,194,1.0,7.0,60,0.00,,,0.00,VWS V14.01,2013-10-01 05:25:00,
2013-10-01 00:30:00,66.0,51.7,29.58,SW,222,0.0,7.0,60,0.00,,,0.00,VWS V14.01,2013-10-01 05:30:00,
2013-10-01 00:35:00,65.9,52.1,29.58,WSW,251,0.0,3.0,61,0.00,,,0.00,VWS V14.01,2013-10-01 05:35:00,
2013-10-01 00:40:00,65.7,51.9,29.58,SW,229,1.0,3.0,61,0.00,,,0.00,VWS V14.01,2013-10-01 05:40:00,
2013-10-01 00:45:00,65.5,51.7,29.58,East,95,0.0,3.0,61,0.00,,,0.00,VWS V14.01,2013-10-01 05:45:00,
2013-10-01 00:50:00,65.4,52.1,29.58,West,273,0.0,5.0,62,0.00,,,0.00,VWS V14.01,2013-10-01 05:50:00,
2013-10-01 00:55:00,65.3,52.0,29.58,East,97,1.0,5.0,62,0.00,,,0.00,VWS V14.01,2013-10-01 05:55:00,
2013-10-01 01:01:00,65.2,51.9,29.58,WSW,246,0.0,2.0,62,0.00,,,0.00,VWS V14.01,2013-10-01 06:01:00,
2013-10-01 01:06:00,65.1,52.2,29.57,NW,305,1.0,7.0,63,0.00,,,0.00,VWS V14.01,2013-10-01 06:06:00,
2013-10-01 01:11:00,65.0,52.1,29.57,West,273,0.0,7.0,63,0.00,,,0.00,VWS V14.01,2013-10-01 06:11:00,
2013-10-01 01:16:00,64.8,51.9,29.57,ENE,70,1.0,7.0,63,0.00,,,0.00,VWS V14.01,2013-10-01 06:16:00,
2013-10-01 01:21:00,64.7,51.8,29.57,SSE,147,0.0,7.0,63,0.00,,,0.00,VWS V14.01,2013-10-01 06:21:00,
2013-10-01 01:26:00,64.6,51.7,29.57,West,261,1.0,7.0,63,0.00,,,0.00,VWS V14.01,2013-10-01 06:26:00,
2013-10-01 01:31:00,64.6,52.2,29.57,West,268,1.0,2.0,64,0.00,,,0.00,VWS V14.01,2013-10-01 06:31:00,
2013-10-01 01:36:00,64.6,52.2,29.57,South,178,0.0,4.0,64,0.00,,,0.00,VWS V14.01,2013-10-01 06:36:00,
2013-10-01 01:41:00,64.6,52.2,29.57,SW,231,2.0,4.0,64,0.00,,,0.00,VWS V14.01,2013-10-01 06:41:00,
2013-10-01 01:47:00,64.7,52.3,29.57,NE,39,1.0,4.0,64,0.00,,,0.00,VWS V14.01,2013-10-01 06:47:00,
2013-10-01 01:52:00,64.7,52.3,29.57,WSW,247,1.0,5.0,64,0.00,,,0.00,VWS V14.01,2013-10-01 06:52:00,
2013-10-01 01:58:00,64.8,51.9,29.57,SW,224,0.0,7.0,63,0.00,,,0.00,VWS V14.01,2013-10-01 06:58:00,
2013-10-01 02:03:00,64.9,52.5,29.57,West,260,3.0,3.0,64,0.00,,,0.00,VWS V14.01,2013-10-01 07:03:00,
2013-10-01 02:08:00,65.0,52.1,29.57,SW,221,0.0,3.0,63,0.00,,,0.00,VWS V14.01,2013-10-01 07:08:00,
2013-10-01 02:13:00,65.0,52.1,29.57,North,354,0.0,4.0,63,0.00,,,0.00,VWS V14.01,2013-10-01 07:13:00,
2013-10-01 02:18:00,65.0,52.1,29.57,ESE,121,0.0,4.0,63,0.00,,,0.00,VWS V14.01,2013-10-01 07:18:00,
2013-10-01 02:23:00,65.1,52.2,29.56,East,80,0.0,6.0,63,0.00,,,0.00,VWS V14.01,2013-10-01 07:23:00,
2013-10-01 02:28:00,65.2,52.3,29.56,SSE,162,1.0,6.0,63,0.00,,,0.00,VWS V14.01,2013-10-01 07:28:00,
2013-10-01 02:33:00,65.3,52.4,29.56,ESE,106,1.0,2.0,63,0.00,,,0.00,VWS V14.01,2013-10-01 07:33:00,
2013-10-01 02:38:00,65.4,52.5,29.56,East,95,0.0,2.0,63,0.00,,,0.00,VWS V14.01,2013-10-01 07:38:00,
2013-10-01 02:44:00,65.6,52.2,29.56,SSW,193,2.0,7.0,62,0.00,,,0.00,VWS V14.01,2013-10-01 07:44:00,
2013-10-01 02:49:00,65.7,52.3,29.57,WSW,239,0.0,7.0,62,0.00,,,0.00,VWS V14.01,2013-10-01 07:49:00,
2013-10-01 02:54:00,65.7,52.8,29.55,NW,325,1.0,7.0,63,0.00,,,0.00,VWS V14.01,2013-10-01 07:54:00,
2013-10-01 02:59:00,65.6,52.7,29.56,East,83,2.0,7.0,63,0.00,,,0.00,VWS V14.01,2013-10-01 07:59:00,
2013-10-01 03:04:00,65.6,52.7,29.56,West,260,0.0,5.0,63,0.00,,,0.00,VWS V14.01,2013-10-01 08:04:00,
2013-10-01 03:10:00,65.4,52.5,29.56,SW,216,1.0,5.0,63,0.00,,,0.00,VWS V14.01,2013-10-01 08:10:00,
2013-10-01 03:15:00,65.3,52.8,29.57,South,177,1.0,6.0,64,0.00,,,0.00,VWS V14.01,2013-10-01 08:15:00,
2013-10-01 03:20:00,65.2,52.7,29.57,WSW,247,2.0,8.0,64,0.00,,,0.00,VWS V14.01,2013-10-01 08:20:00,
2013-10-01 03:25:00,65.2,52.7,29.57,SSW,210,1.0,8.0,64,0.00,,,0.00,VWS V14.01,2013-10-01 08:25:00,
2013-10-01 03:30:00,65.2,52.3,29.57,SW,222,3.0,8.0,63,0.00,,,0.00,VWS V14.01,2013-10-01 08:30:00,
2013-10-01 03:35:00,65.1,52.6,29.56,West,263,2.0,2.0,64,0.00,,,0.00,VWS V14.01,2013-10-01 08:35:00,
2013-10-01 03:40:00,65.2,52.7,29.56,ESE,103,2.0,3.0,64,0.00,,,0.00,VWS V14.01,2013-10-01 08:40:00,
2013-10-01 03:45:00,65.1,52.6,29.56,NW,317,1.0,4.0,64,0.00,,,0.00,VWS V14.01,2013-10-01 08:45:00,
2013-10-01 03:50:00,65.0,52.5,29.56,SW,230,2.0,4.0,64,0.00,,,0.00,VWS V14.01,2013-10-01 08:50:00,
2013-10-01 03:55:00,64.9,52.5,29.56,SW,232,0.0,4.0,64,0.00,,,0.00,VWS V14.01,2013-10-01 08:55:00,
2013-10-01 04:00:00,64.9,52.9,29.56,West,262,2.0,4.0,65,0.00,,,0.00,VWS V14.01,2013-10-01 09:00:00,
2013-10-01 04:05:00,64.8,52.8,29.56,WSW,253,1.0,4.0,65,0.00,,,0.00,VWS V14.01,2013-10-01 09:05:00,
2013-10-01 04:11:00,64.8,52.8,29.56,WSW,254,1.0,6.0,65,0.00,,,0.00,VWS V14.01,2013-10-01 09:11:00,
2013-10-01 04:16:00,64.9,52.9,29.56,SW,233,5.0,7.0,65,0.00,,,0.00,VWS V14.01,2013-10-01 09:16:00,
2013-10-01 04:21:00,65.0,53.0,29.56,West,266,0.0,7.0,65,0.00,,,0.00,VWS V14.01,2013-10-01 09:21:00,
2013-10-01 04:26:00,65.0,53.0,29.56,West,264,1.0,7.0,65,0.00,,,0.00,VWS V14.01,2013-10-01 09:26:00,
2013-10-01 04:31:00,65.2,53.2,29.56,West,269,2.0,3.0,65,0.00,,,0.00,VWS V14.01,2013-10-01 09:31:00,
2013-10-01 04:36:00,65.3,52.8,29.56,West,279,0.0,5.0,64,0.00,,,0.00,VWS V14.01,2013-10-01 09:36:00,
2013-10-01 04:41:00,65.3,53.2,29.57,WSW,256,2.0,7.0,65,0.00,,,0.00,VWS V14.01,2013-10-01 09:41:00,
2013-10-01 04:46:00,65.3,53.2,29.57,WSW,251,0.0,9.0,65,0.00,,,0.00,VWS V14.01,2013-10-01 09:46:00,
2013-10-01 04:52:00,65.2,53.2,29.57,NW,307,0.0,9.0,65,0.00,,,0.00,VWS V14.01,2013-10-01 09:52:00,
2013-10-01 04:57:00,65.2,53.2,29.57,SSW,196,0.0,9.0,65,0.00,,,0.00,VWS V14.01,2013-10-01 09:57:00,
2013-10-01 05:02:00,65.0,53.4,29.57,West,260,1.0,3.0,66,0.00,,,0.00,VWS V14.01,2013-10-01 10:02:00,
2013-10-01 05:07:00,64.9,53.3,29.58,SSW,193,2.0,6.0,66,0.00,,,0.00,VWS V14.01,2013-10-01 10:07:00,
2013-10-01 05:12:00,64.8,53.2,29.58,WSW,249,1.0,6.0,66,0.00,,,0.00,VWS V14.01,2013-10-01 10:12:00,
2013-10-01 05:17:00,64.6,53.0,29.58,South,170,2.0,8.0,66,0.00,,,0.00,VWS V14.01,2013-10-01 10:17:00,
2013-10-01 05:22:00,64.5,52.9,29.58,West,260,3.0,8.0,66,0.00,,,0.00,VWS V14.01,2013-10-01 10:22:00,
2013-10-01 05:27:00,64.4,53.2,29.59,West,262,8.0,8.0,67,0.00,,,0.00,VWS V14.01,2013-10-01 10:27:00,
2013-10-01 05:32:00,64.4,53.2,29.59,NE,40,1.0,2.0,67,0.00,,,0.00,VWS V14.01,2013-10-01 10:32:00,
2013-10-01 05:37:00,64.3,53.1,29.59,West,278,4.0,6.0,67,0.00,,,0.00,VWS V14.01,2013-10-01 10:37:00,
2013-10-01 05:42:00,64.2,53.0,29.59,West,271,3.0,6.0,67,0.00,,,0.00,VWS V14.01,2013-10-01 10:42:00,
2013-10-01 05:47:00,64.1,53.3,29.59,WSW,253,3.0,8.0,68,0.00,,,0.00,VWS V14.01,2013-10-01 10:47:00,
2013-10-01 05:52:00,64.0,53.2,29.60,West,272,3.0,8.0,68,0.00,,,0.00,VWS V14.01,2013-10-01 10:52:00,
2013-10-01 05:58:00,63.9,53.1,29.60,SW,230,2.0,8.0,68,0.00,,,0.00,VWS V14.01,2013-10-01 10:58:00,
2013-10-01 06:03:00,63.9,53.5,29.60,West,273,6.0,6.0,69,0.00,,,0.00,VWS V14.01,2013-10-01 11:03:00,
2013-10-01 06:08:00,63.8,53.5,29.61,WSW,247,2.0,6.0,69,0.00,,,0.00,VWS V14.01,2013-10-01 11:08:00,
2013-10-01 06:13:00,63.7,53.3,29.61,West,264,0.0,6.0,69,0.00,,,0.00,VWS V14.01,2013-10-01 11:13:00,
2013-10-01 06:19:00,63.6,53.7,29.62,West,266,0.0,6.0,70,0.00,,,0.00,VWS V14.01,2013-10-01 11:19:00,
2013-10-01 06:24:00,63.4,53.5,29.62,WSW,246,1.0,8.0,70,0.00,,,0.00,VWS V14.01,2013-10-01 11:24:00,
2013-10-01 06:29:00,63.3,53.4,29.63,WSW,249,1.0,8.0,70,0.00,,,0.00,VWS V14.01,2013-10-01 11:29:00,
2013-10-01 06:34:00,63.1,53.2,29.63,West,276,3.0,9.0,70,0.00,,,0.00,VWS V14.01,2013-10-01 11:34:00,
2013-10-01 06:39:00,63.0,53.5,29.63,West,271,0.0,9.0,71,0.00,,,0.00,VWS V14.01,2013-10-01 11:39:00,
2013-10-01 06:44:00,62.9,53.4,29.64,WNW,295,0.0,9.0,71,0.00,,,0.00,VWS V14.01,2013-10-01 11:44:00,
2013-10-01 06:49:00,62.7,53.2,29.64,West,274,1.0,9.0,71,0.00,,,0.00,VWS V14.01,2013-10-01 11:49:00,
2013-10-01 06:54:00,62.7,53.2,29.64,West,277,1.0,9.0,71,0.00,,,0.00,VWS V14.01,2013-10-01 11:54:00,
2013-10-01 06:59:00,62.6,53.5,29.64,West,266,1.0,9.0,72,0.00,,,0.00,VWS V14.01,2013-10-01 11:59:00,
2013-10-01 07:04:00,62.5,53.4,29.65,WNW,300,0.0,3.0,72,0.00,,,0.00,VWS V14.01,2013-10-01 12:04:00,
2013-10-01 07:09:00,62.4,53.3,29.65,ENE,70,0.0,4.0,72,0.00,,,0.00,VWS V14.01,2013-10-01 12:09:00,
2013-10-01 07:15:00,62.4,53.3,29.66,WNW,297,1.0,4.0,72,0.00,,,0.00,VWS V14.01,2013-10-01 12:15:00,
2013-10-01 07:20:00,62.4,53.6,29.66,SW,234,5.0,5.0,73,0.00,,,0.00,VWS V14.01,2013-10-01 12:20:00,
2013-10-01 07:25:00,62.3,53.2,29.66,WSW,258,6.0,9.0,72,0.00,,,0.00,VWS V14.01,2013-10-01 12:25:00,
2013-10-01 07:30:00,62.3,53.2,29.67,WSW,248,2.0,9.0,72,0.00,,,0.00,VWS V14.01,2013-10-01 12:30:00,
2013-10-01 07:35:00,62.3,53.2,29.67,NNE,17,0.0,5.0,72,0.00,,,0.00,VWS V14.01,2013-10-01 12:35:00,
2013-10-01 07:40:00,62.4,53.3,29.68,North,4,3.0,5.0,72,0.00,,,0.00,VWS V14.01,2013-10-01 12:40:00,
2013-10-01 07:45:00,62.4,53.3,29.68,West,265,2.0,6.0,72,0.00,,,0.00,VWS V14.01,2013-10-01 12:45:00,
2013-10-01 07:51:00,62.5,53.4,29.69,NE,40,0.0,7.0,72,0.00,,,0.00,VWS V14.01,2013-10-01 12:51:00,
2013-10-01 07:56:00,62.4,52.9,29.70,WNW,301,4.0,9.0,71,0.00,,,0.00,VWS V14.01,2013-10-01 12:56:00,
2013-10-01 08:01:00,62.5,53.0,29.70,NNW,328,3.0,3.0,71,0.00,,,0.00,VWS V14.01,2013-10-01 13:01:00,
2013-10-01 08:06:00,62.6,53.1,29.71,ENE,78,2.0,5.0,71,0.00,,,0.00,VWS V14.01,2013-10-01 13:06:00,
2013-10-01 08:11:00,62.7,53.5,29.71,NNW,330,1.0,5.0,72,0.00,,,0.00,VWS V14.01,2013-10-01 13:11:00,
2013-10-01 08:16:00,63.1,53.9,29.72,WNW,290,0.0,5.0,72,0.00,,,0.00,VWS V14.01,2013-10-01 13:16:00,
2013-10-01 08:21:00,64.0,54.0,29.72,NW,306,1.0,12.0,70,0.00,,,0.00,VWS V14.01,2013-10-01 13:21:00,
2013-10-01 08:26:00,64.7,55.1,29.73,WNW,282,0.0,12.0,71,0.00,,,0.00,VWS V14.01,2013-10-01 13:26:00,
2013-10-01 08:31:00,65.4,55.0,29.74,WSW,253,2.0,2.0,69,0.00,,,0.00,VWS V14.01,2013-10-01 13:31:00,
2013-10-01 08:36:00,66.0,54.3,29.74,SW,226,0.0,7.0,66,0.00,,,0.00,VWS V14.01,2013-10-01 13:36:00,
2013-10-01 08:41:00,66.5,54.4,29.74,WNW,293,3.0,7.0,65,0.00,,,0.00,VWS V14.01,2013-10-01 13:41:00,
2013-10-01 08:46:00,66.7,54.6,29.74,West,273,2.0,7.0,65,0.00,,,0.00,VWS V14.01,2013-10-01 13:46:00,
2013-10-01 08:51:00,66.4,53.4,29.75,WNW,299,1.0,11.0,63,0.00,,,0.00,VWS V14.01,2013-10-01 13:51:00,
2013-10-01 08:57:00,65.9,53.0,29.75,WNW,292,0.0,11.0,63,0.00,,,0.00,VWS V14.01,2013-10-01 13:57:00,
2013-10-01 09:02:00,65.5,52.6,29.75,WNW,287,1.0,3.0,63,0.00,,,0.00,VWS V14.01,2013-10-01 14:02:00,
2013-10-01 09:07:00,65.1,52.2,29.76,ESE,111,2.0,4.0,63,0.00,,,0.00,VWS V14.01,2013-10-01 14:07:00,
2013-10-01 09:12:00,64.8,52.3,29.76,WSW,256,4.0,7.0,64,0.00,,,0.00,VWS V14.01,2013-10-01 14:12:00,
2013-10-01 09:17:00,64.5,52.1,29.76,NW,318,1.0,9.0,64,0.00,,,0.00,VWS V14.01,2013-10-01 14:17:00,
2013-10-01 09:22:00,64.3,52.3,29.76,WSW,258,0.0,9.0,65,0.00,,,0.00,VWS V14.01,2013-10-01 14:22:00,
2013-10-01 09:27:00,64.3,52.3,29.77,WSW,251,1.0,9.0,65,0.00,,,0.00,VWS V14.01,2013-10-01 14:27:00,
2013-10-01 09:33:00,64.3,52.3,29.77,WNW,295,0.0,2.0,65,0.00,,,0.00,VWS V14.01,2013-10-01 14:33:00,
2013-10-01 09:38:00,64.4,51.5,29.77,WNW,290,4.0,7.0,63,0.00,,,0.00,VWS V14.01,2013-10-01 14:38:00,
2013-10-01 09:43:00,64.5,51.2,29.78,ENE,75,1.0,7.0,62,0.00,,,0.00,VWS V14.01,2013-10-01 14:43:00,
2013-10-01 09:48:00,64.4,50.2,29.78,North,4,2.0,7.0,60,0.00,,,0.00,VWS V14.01,2013-10-01 14:48:00,
2013-10-01 09:53:00,64.5,50.8,29.78,West,274,5.0,8.0,61,0.00,,,0.00,VWS V14.01,2013-10-01 14:53:00,
2013-10-01 09:58:00,64.5,50.8,29.78,East,81,1.0,8.0,61,0.00,,,0.00,VWS V14.01,2013-10-01 14:58:00,
2013-10-01 10:03:00,64.5,50.8,29.78,WNW,289,1.0,4.0,61,0.00,,,0.00,VWS V14.01,2013-10-01 15:03:00,
2013-10-01 10:09:00,64.7,50.5,29.78,North,354,0.0,9.0,60,0.00,,,0.00,VWS V14.01,2013-10-01 15:09:00,
2013-10-01 10:14:00,64.8,50.6,29.79,North,9,2.0,9.0,60,0.00,,,0.00,VWS V14.01,2013-10-01 15:14:00,
2013-10-01 10:19:00,64.9,49.8,29.79,West,261,1.0,9.0,58,0.00,,,0.00,VWS V14.01,2013-10-01 15:19:00,
2013-10-01 10:24:00,65.1,50.4,29.79,NE,41,1.0,9.0,59,0.00,,,0.00,VWS V14.01,2013-10-01 15:24:00,
2013-10-01 10:29:00,65.2,50.1,29.80,West,273,2.0,9.0,58,0.00,,,0.00,VWS V14.01,2013-10-01 15:29:00,
2013-10-01 10:34:00,65.3,49.2,29.80,WNW,293,1.0,5.0,56,0.00,,,0.00,VWS V14.01,2013-10-01 15:34:00,
2013-10-01 10:40:00,65.5,49.4,29.80,WNW,299,1.0,5.0,56,0.00,,,0.00,VWS V14.01,2013-10-01 15:40:00,
2013-10-01 10:45:00,65.7,49.6,29.80,NE,38,0.0,8.0,56,0.00,,,0.00,VWS V14.01,2013-10-01 15:45:00,
2013-10-01 10:51:00,65.9,48.3,29.80,WNW,293,3.0,8.0,53,0.00,,,0.00,VWS V14.01,2013-10-01 15:51:00,
2013-10-01 10:56:00,66.0,48.4,29.80,South,181,2.0,8.0,53,0.00,,,0.00,VWS V14.01,2013-10-01 15:56:00,
2013-10-01 11:01:00,66.2,48.1,29.81,West,277,2.0,4.0,52,0.00,,,0.00,VWS V14.01,2013-10-01 16:01:00,
2013-10-01 11:06:00,66.3,47.7,29.81,East,89,1.0,9.0,51,0.00,,,0.00,VWS V14.01,2013-10-01 16:06:00,
2013-10-01 11:11:00,66.5,47.3,29.81,WNW,299,1.0,9.0,50,0.00,,,0.00,VWS V14.01,2013-10-01 16:11:00,
2013-10-01 11:17:00,66.7,47.5,29.81,WNW,298,3.0,9.0,50,0.00,,,0.00,VWS V14.01,2013-10-01 16:17:00,
2013-10-01 11:22:00,66.9,47.7,29.81,NNE,14,1.0,9.0,50,0.00,,,0.00,VWS V14.01,2013-10-01 16:22:00,
2013-10-01 11:27:00,67.1,46.8,29.81,West,273,1.0,9.0,48,0.00,,,0.00,VWS V14.01,2013-10-01 16:27:00,
2013-10-01 11:31:00,67.3,48.0,29.81,West,279,0.0,3.0,50,0.00,,,0.00,VWS V14.01,2013-10-01 16:31:00,
2013-10-01 11:36:00,67.5,48.2,29.81,SW,224,2.0,4.0,50,0.00,,,0.00,VWS V14.01,2013-10-01 16:36:00,
2013-10-01 11:41:00,67.8,49.0,29.81,West,268,4.0,5.0,51,0.00,,,0.00,VWS V14.01,2013-10-01 16:41:00,
2013-10-01 11:46:00,68.1,48.2,29.81,WNW,289,2.0,8.0,49,0.00,,,0.00,VWS V14.01,2013-10-01 16:46:00,
2013-10-01 11:52:00,68.4,47.4,29.82,NW,308,2.0,8.0,47,0.00,,,0.00,VWS V14.01,2013-10-01 16:52:00,
2013-10-01 11:57:00,68.6,45.8,29.81,ENE,73,2.0,8.0,44,0.00,,,0.00,VWS V14.01,2013-10-01 16:57:00,
2013-10-01 12:02:00,68.8,44.8,29.81,WNW,288,6.0,6.0,42,0.00,,,0.00,VWS V14.01,2013-10-01 17:02:00,
2013-10-01 12:08:00,69.0,45.6,29.81,NE,45,3.0,7.0,43,0.00,,,0.00,VWS V14.01,2013-10-01 17:08:00,
2013-10-01 12:13:00,69.2,45.2,29.82,North,354,1.0,7.0,42,0.00,,,0.00,VWS V14.01,2013-10-01 17:13:00,
2013-10-01 12:18:00,69.4,46.6,29.81,West,274,1.0,11.0,44,0.00,,,0.00,VWS V14.01,2013-10-01 17:18:00,
2013-10-01 12:23:00,69.6,46.8,29.82,WNW,292,2.0,11.0,44,0.00,,,0.00,VWS V14.01,2013-10-01 17:23:00,
2013-10-01 12:28:00,69.9,44.5,29.82,ESE,106,1.0,11.0,40,0.00,,,0.00,VWS V14.01,2013-10-01 17:28:00,
2013-10-01 12:33:00,70.2,43.4,29.82,North,359,1.0,7.0,38,0.00,,,0.00,VWS V14.01,2013-10-01 17:33:00,
2013-10-01 12:38:00,70.4,43.6,29.82,NW,314,2.0,7.0,38,0.00,,,0.00,VWS V14.01,2013-10-01 17:38:00,
2013-10-01 12:44:00,70.7,42.5,29.82,North,350,0.0,9.0,36,0.00,,,0.00,VWS V14.01,2013-10-01 17:44:00,
2013-10-01 12:49:00,70.9,41.9,29.82,NW,311,4.0,9.0,35,0.00,,,0.00,VWS V14.01,2013-10-01 17:49:00,
2013-10-01 12:54:00,70.9,41.2,29.82,SE,140,2.0,12.0,34,0.00,,,0.00,VWS V14.01,2013-10-01 17:54:00,
2013-10-01 12:59:00,71.0,41.2,29.82,North,354,2.0,12.0,34,0.00,,,0.00,VWS V14.01,2013-10-01 17:59:00,
2013-10-01 13:04:00,71.1,42.1,29.82,West,278,7.0,8.0,35,0.00,,,0.00,VWS V14.01,2013-10-01 18:04:00,
2013-10-01 13:09:00,71.2,41.4,29.83,North,359,0.0,8.0,34,0.00,,,0.00,VWS V14.01,2013-10-01 18:09:00,
2013-10-01 13:14:00,71.4,40.8,29.83,NNE,25,4.0,8.0,33,0.00,,,0.00,VWS V14.01,2013-10-01 18:14:00,
2013-10-01 13:19:00,71.6,41.8,29.83,North,4,0.0,8.0,34,0.00,,,0.00,VWS V14.01,2013-10-01 18:19:00,
2013-10-01 13:24:00,71.7,41.1,29.83,WNW,289,7.0,8.0,33,0.00,,,0.00,VWS V14.01,2013-10-01 18:24:00,
2013-10-01 13:29:00,71.9,41.3,29.83,West,275,3.0,11.0,33,0.00,,,0.00,VWS V14.01,2013-10-01 18:29:00,
2013-10-01 13:34:00,72.0,42.1,29.83,West,261,4.0,5.0,34,0.00,,,0.00,VWS V14.01,2013-10-01 18:34:00,
2013-10-01 13:39:00,72.2,40.7,29.83,WNW,293,7.0,7.0,32,0.00,,,0.00,VWS V14.01,2013-10-01 18:39:00,
2013-10-01 13:44:00,72.3,40.8,29.83,NW,306,8.0,9.0,32,0.00,,,0.00,VWS V14.01,2013-10-01 18:44:00,
2013-10-01 13:49:00,72.4,38.4,29.83,West,270,8.0,12.0,29,0.00,,,0.00,VWS V14.01,2013-10-01 18:49:00,
2013-10-01 13:54:00,72.5,38.5,29.83,NW,314,5.0,13.0,29,0.00,,,0.00,VWS V14.01,2013-10-01 18:54:00,
2013-10-01 13:59:00,72.6,38.5,29.83,NW,308,9.0,15.0,29,0.00,,,0.00,VWS V14.01,2013-10-01 18:59:00,
2013-10-01 14:04:00,72.6,36.7,29.83,SE,133,1.0,11.0,27,0.00,,,0.00,VWS V14.01,2013-10-01 19:04:00,
2013-10-01 14:10:00,72.6,38.5,29.83,NNW,330,1.0,11.0,29,0.00,,,0.00,VWS V14.01,2013-10-01 19:10:00,
2013-10-01 14:15:00,72.7,38.6,29.83,WNW,288,3.0,11.0,29,0.00,,,0.00,VWS V14.01,2013-10-01 19:15:00,
2013-10-01 14:20:00,72.7,40.3,29.83,NE,50,2.0,11.0,31,0.00,,,0.00,VWS V14.01,2013-10-01 19:20:00,
2013-10-01 14:25:00,72.7,39.5,29.83,ENE,59,2.0,11.0,30,0.00,,,0.00,VWS V14.01,2013-10-01 19:25:00,
2013-10-01 14:30:00,72.8,40.4,29.83,WNW,297,3.0,11.0,31,0.00,,,0.00,VWS V14.01,2013-10-01 19:30:00,
2013-10-01 14:35:00,72.9,40.5,29.83,ENE,62,1.0,12.0,31,0.00,,,0.00,VWS V14.01,2013-10-01 19:35:00,
2013-10-01 14:40:00,72.8,38.7,29.83,WSW,258,2.0,12.0,29,0.00,,,0.00,VWS V14.01,2013-10-01 19:40:00,
2013-10-01 14:45:00,72.7,39.5,29.83,NNE,12,0.0,12.0,30,0.00,,,0.00,VWS V14.01,2013-10-01 19:45:00,
2013-10-01 14:50:00,72.6,39.4,29.83,North,354,3.0,12.0,30,0.00,,,0.00,VWS V14.01,2013-10-01 19:50:00,
2013-10-01 14:55:00,72.6,39.4,29.83,SW,233,2.0,12.0,30,0.00,,,0.00,VWS V14.01,2013-10-01 19:55:00,
2013-10-01 15:00:00,72.6,40.3,29.84,West,270,3.0,12.0,31,0.00,,,0.00,VWS V14.01,2013-10-01 20:00:00,
2013-10-01 15:06:00,72.6,39.4,29.84,WSW,247,6.0,19.0,30,0.00,,,0.00,VWS V14.01,2013-10-01 20:06:00,
2013-10-01 15:11:00,72.5,39.3,29.84,WNW,289,3.0,19.0,30,0.00,,,0.00,VWS V14.01,2013-10-01 20:11:00,
2013-10-01 15:16:00,72.7,40.3,29.84,WNW,301,0.0,19.0,31,0.00,,,0.00,VWS V14.01,2013-10-01 20:16:00,
2013-10-01 15:21:00,72.7,40.3,29.84,WSW,238,2.0,19.0,31,0.00,,,0.00,VWS V14.01,2013-10-01 20:21:00,
2013-10-01 15:26:00,72.7,40.3,29.84,WNW,303,2.0,19.0,31,0.00,,,0.00,VWS V14.01,2013-10-01 20:26:00,
2013-10-01 15:31:00,72.7,40.3,29.84,SSW,212,4.0,10.0,31,0.00,,,0.00,VWS V14.01,2013-10-01 20:31:00,
2013-10-01 15:36:00,72.6,39.4,29.84,West,263,5.0,10.0,30,0.00,,,0.00,VWS V14.01,2013-10-01 20:36:00,
2013-10-01 15:41:00,72.5,39.3,29.84,West,279,5.0,10.0,30,0.00,,,0.00,VWS V14.01,2013-10-01 20:41:00,
2013-10-01 15:46:00,72.5,40.2,29.84,WNW,291,2.0,14.0,31,0.00,,,0.00,VWS V14.01,2013-10-01 20:46:00,
2013-10-01 15:51:00,72.5,39.3,29.84,NW,312,2.0,14.0,30,0.00,,,0.00,VWS V14.01,2013-10-01 20:51:00,
2013-10-01 15:57:00,72.5,37.6,29.84,WSW,239,1.0,16.0,28,0.00,,,0.00,VWS V14.01,2013-10-01 20:57:00,
2013-10-01 16:02:00,72.5,38.5,29.84,NW,305,3.0,16.0,29,0.00,,,0.00,VWS V14.01,2013-10-01 21:02:00,
2013-10-01 16:07:00,72.5,36.7,29.84,West,274,2.0,16.0,27,0.00,,,0.00,VWS V14.01,2013-10-01 21:07:00,
2013-10-01 16:12:00,72.5,37.6,29.84,West,264,7.0,16.0,28,0.00,,,0.00,VWS V14.01,2013-10-01 21:12:00,
2013-10-01 16:17:00,72.5,39.3,29.84,WNW,284,0.0,16.0,30,0.00,,,0.00,VWS V14.01,2013-10-01 21:17:00,
2013-10-01 16:22:00,72.5,38.5,29.84,West,278,6.0,19.0,29,0.00,,,0.00,VWS V14.01,2013-10-01 21:22:00,
2013-10-01 16:27:00,72.5,38.5,29.85,NW,322,2.0,19.0,29,0.00,,,0.00,VWS V14.01,2013-10-01 21:27:00,
2013-10-01 16:32:00,72.5,38.5,29.85,NW,305,1.0,8.0,29,0.00,,,0.00,VWS V14.01,2013-10-01 21:32:00,
2013-10-01 16:37:00,72.4,37.5,29.85,WNW,301,3.0,12.0,28,0.00,,,0.00,VWS V14.01,2013-10-01 21:37:00,
2013-10-01 16:42:00,72.3,37.4,29.85,WSW,249,2.0,12.0,28,0.00,,,0.00,VWS V14.01,2013-10-01 21:42:00,
2013-10-01 16:47:00,72.2,39.1,29.85,West,276,1.0,12.0,30,0.00,,,0.00,VWS V14.01,2013-10-01 21:47:00,
2013-10-01 16:52:00,72.0,38.0,29.85,West,272,2.0,12.0,29,0.00,,,0.00,VWS V14.01,2013-10-01 21:52:00,
2013-10-01 16:58:00,72.0,38.9,29.85,West,272,6.0,12.0,30,0.00,,,0.00,VWS V14.01,2013-10-01 21:58:00,
2013-10-01 17:03:00,71.8,37.0,29.85,West,274,0.0,8.0,28,0.00,,,0.00,VWS V14.01,2013-10-01 22:03:00,
2013-10-01 17:08:00,71.8,37.9,29.85,West,274,0.0,8.0,29,0.00,,,0.00,VWS V14.01,2013-10-01 22:08:00,
2013-10-01 17:13:00,71.6,38.6,29.85,WNW,293,2.0,8.0,30,0.00,,,0.00,VWS V14.01,2013-10-01 22:13:00,
2013-10-01 17:18:00,71.5,38.5,29.86,West,280,2.0,8.0,30,0.00,,,0.00,VWS V14.01,2013-10-01 22:18:00,
2013-10-01 17:23:00,71.3,38.3,29.86,West,276,4.0,8.0,30,0.00,,,0.00,VWS V14.01,2013-10-01 22:23:00,
2013-10-01 17:28:00,71.1,37.3,29.86,NW,305,1.0,12.0,29,0.00,,,0.00,VWS V14.01,2013-10-01 22:28:00,
2013-10-01 17:33:00,71.0,37.2,29.86,WNW,283,2.0,6.0,29,0.00,,,0.00,VWS V14.01,2013-10-01 22:33:00,
2013-10-01 17:38:00,70.9,37.1,29.86,WNW,282,1.0,9.0,29,0.00,,,0.00,VWS V14.01,2013-10-01 22:38:00,
2013-10-01 17:44:00,70.7,38.6,29.86,WSW,258,1.0,9.0,31,0.00,,,0.00,VWS V14.01,2013-10-01 22:44:00,
2013-10-01 17:49:00,70.5,37.6,29.86,West,260,1.0,9.0,30,0.00,,,0.00,VWS V14.01,2013-10-01 22:49:00,
2013-10-01 17:54:00,70.4,38.3,29.86,West,278,0.0,9.0,31,0.00,,,0.00,VWS V14.01,2013-10-01 22:54:00,
2013-10-01 17:59:00,70.1,38.1,29.86,West,270,0.0,9.0,31,0.00,,,0.00,VWS V14.01,2013-10-01 22:59:00,
2013-10-01 18:04:00,69.8,37.8,29.86,WSW,258,4.0,5.0,31,0.00,,,0.00,VWS V14.01,2013-10-01 23:04:00,
2013-10-01 18:09:00,69.6,41.5,29.86,WSW,258,0.0,5.0,36,0.00,,,0.00,VWS V14.01,2013-10-01 23:09:00,
2013-10-01 18:14:00,69.3,40.5,29.86,WNW,296,1.0,5.0,35,0.00,,,0.00,VWS V14.01,2013-10-01 23:14:00,
2013-10-01 18:19:00,68.8,40.8,29.86,WSW,255,0.0,5.0,36,0.00,,,0.00,VWS V14.01,2013-10-01 23:19:00,
2013-10-01 18:20:00,68.8,42.9,29.86,WSW,255,0.0,5.0,39,0.00,,,0.00,VWS V14.01,2013-10-01 23:20:00,
2013-10-01 18:25:00,68.2,41.7,29.86,West,278,0.0,5.0,38,0.00,,,0.00,VWS V14.01,2013-10-01 23:25:00,
2013-10-01 18:30:00,67.8,42.6,29.86,WSW,243,4.0,5.0,40,0.00,,,0.00,VWS V14.01,2013-10-01 23:30:00,
2013-10-01 18:35:00,67.3,42.8,29.86,WSW,244,0.0,0.0,41,0.00,,,0.00,VWS V14.01,2013-10-01 23:35:00,
2013-10-01 18:40:00,66.7,42.9,29.87,WSW,245,0.0,0.0,42,0.00,,,0.00,VWS V14.01,2013-10-01 23:40:00,
2013-10-01 18:45:00,66.2,43.1,29.87,WSW,245,0.0,1.0,43,0.00,,,0.00,VWS V14.01,2013-10-01 23:45:00,
2013-10-01 18:50:00,65.7,42.6,29.87,WSW,245,0.0,1.0,43,0.00,,,0.00,VWS V14.01,2013-10-01 23:50:00,
2013-10-01 18:55:00,65.2,42.8,29.87,WSW,244,0.0,1.0,44,0.00,,,0.00,VWS V14.01,2013-10-01 23:55:00,
2013-10-01 19:00:00,64.6,44.5,29.87,WSW,244,0.0,1.0,48,0.00,,,0.00,VWS V14.01,2013-10-02 00:00:00,
2013-10-01 19:05:00,64.1,42.9,29.87,WSW,244,0.0,0.0,46,0.00,,,0.00,VWS V14.01,2013-10-02 00:05:00,
2013-10-01 19:10:00,63.7,42.0,29.87,WSW,245,0.0,0.0,45,0.00,,,0.00,VWS V14.01,2013-10-02 00:10:00,
2013-10-01 19:15:00,63.2,43.2,29.88,WSW,244,0.0,1.0,48,0.00,,,0.00,VWS V14.01,2013-10-02 00:15:00,
2013-10-01 19:17:00,63.1,43.7,29.88,WSW,245,0.0,1.0,49,0.00,,,0.00,VWS V14.01,2013-10-02 00:17:00,
2013-10-01 19:22:00,62.6,43.2,29.88,WSW,245,0.0,1.0,49,0.00,,,0.00,VWS V14.01,2013-10-02 00:22:00,
2013-10-01 19:27:00,62.1,42.7,29.88,WSW,244,0.0,1.0,49,0.00,,,0.00,VWS V14.01,2013-10-02 00:27:00,
2013-10-01 19:32:00,61.6,42.3,29.88,WSW,245,0.0,0.0,49,0.00,,,0.00,VWS V14.01,2013-10-02 00:32:00,
2013-10-01 19:37:00,61.1,42.8,29.88,WSW,244,0.0,0.0,51,0.00,,,0.00,VWS V14.01,2013-10-02 00:37:00,
2013-10-01 19:42:00,60.7,43.0,29.89,WSW,245,0.0,0.0,52,0.00,,,0.00,VWS V14.01,2013-10-02 00:42:00,
2013-10-01 19:47:00,60.3,42.6,29.89,WSW,245,0.0,0.0,52,0.00,,,0.00,VWS V14.01,2013-10-02 00:47:00,
2013-10-01 19:52:00,60.0,41.8,29.89,WSW,244,0.0,0.0,51,0.00,,,0.00,VWS V14.01,2013-10-02 00:52:00,
2013-10-01 19:57:00,59.6,42.5,29.89,WSW,245,0.0,0.0,53,0.00,,,0.00,VWS V14.01,2013-10-02 00:57:00,
2013-10-01 20:02:00,59.3,42.7,29.89,WSW,244,0.0,0.0,54,0.00,,,0.00,VWS V14.01,2013-10-02 01:02:00,
2013-10-01 20:07:00,59.0,42.4,29.89,WSW,245,0.0,0.0,54,0.00,,,0.00,VWS V14.01,2013-10-02 01:07:00,
2013-10-01 20:12:00,58.7,42.1,29.90,WSW,244,0.0,0.0,54,0.00,,,0.00,VWS V14.01,2013-10-02 01:12:00,
2013-10-01 20:17:00,58.5,42.9,29.90,WSW,245,0.0,0.0,56,0.00,,,0.00,VWS V14.01,2013-10-02 01:17:00,
2013-10-01 20:23:00,58.2,43.5,29.90,WSW,245,0.0,0.0,58,0.00,,,0.00,VWS V14.01,2013-10-02 01:23:00,
2013-10-01 20:28:00,57.9,42.8,29.90,WSW,245,0.0,0.0,57,0.00,,,0.00,VWS V14.01,2013-10-02 01:28:00,
2013-10-01 20:33:00,57.6,42.5,29.90,WSW,245,0.0,0.0,57,0.00,,,0.00,VWS V14.01,2013-10-02 01:33:00,
2013-10-01 20:38:00,57.4,42.8,29.90,WSW,245,0.0,0.0,58,0.00,,,0.00,VWS V14.01,2013-10-02 01:38:00,
2013-10-01 20:43:00,57.1,42.5,29.90,WSW,245,0.0,0.0,58,0.00,,,0.00,VWS V14.01,2013-10-02 01:43:00,
2013-10-01 20:48:00,56.9,41.8,29.90,WSW,244,0.0,0.0,57,0.00,,,0.00,VWS V14.01,2013-10-02 01:48:00,
2013-10-01 20:53:00,56.7,42.5,29.91,WSW,245,0.0,0.0,59,0.00,,,0.00,VWS V14.01,2013-10-02 01:53:00,
2013-10-01 20:58:00,56.4,42.3,29.91,WSW,245,0.0,0.0,59,0.00,,,0.00,VWS V14.01,2013-10-02 01:58:00,
2013-10-01 21:03:00,56.2,42.1,29.91,WSW,244,0.0,0.0,59,0.00,,,0.00,VWS V14.01,2013-10-02 02:03:00,
2013-10-01 21:08:00,56.0,42.3,29.91,WSW,244,0.0,0.0,60,0.00,,,0.00,VWS V14.01,2013-10-02 02:08:00,
2013-10-01 21:13:00,55.8,43.4,29.91,WSW,245,0.0,0.0,63,0.00,,,0.00,VWS V14.01,2013-10-02 02:13:00,
2013-10-01 21:18:00,55.5,43.5,29.91,WSW,245,0.0,0.0,64,0.00,,,0.00,VWS V14.01,2013-10-02 02:18:00,
2013-10-01 21:23:00,55.3,43.8,29.91,WSW,245,0.0,0.0,65,0.00,,,0.00,VWS V14.01,2013-10-02 02:23:00,
2013-10-01 21:28:00,55.0,43.5,29.91,WSW,244,0.0,0.0,65,0.00,,,0.00,VWS V14.01,2013-10-02 02:28:00,
2013-10-01 21:33:00,54.9,42.6,29.92,WSW,245,0.0,0.0,63,0.00,,,0.00,VWS V14.01,2013-10-02 02:33:00,
2013-10-01 21:39:00,54.7,42.8,29.92,WSW,244,0.0,0.0,64,0.00,,,0.00,VWS V14.01,2013-10-02 02:39:00,
2013-10-01 21:44:00,54.4,42.5,29.92,WSW,245,0.0,0.0,64,0.00,,,0.00,VWS V14.01,2013-10-02 02:44:00,
2013-10-01 21:49:00,54.3,42.8,29.92,WSW,245,0.0,0.0,65,0.00,,,0.00,VWS V14.01,2013-10-02 02:49:00,
2013-10-01 21:54:00,54.1,42.2,29.92,WSW,244,0.0,0.0,64,0.00,,,0.00,VWS V14.01,2013-10-02 02:54:00,
2013-10-01 21:59:00,54.0,42.9,29.92,WSW,245,0.0,0.0,66,0.00,,,0.00,VWS V14.01,2013-10-02 02:59:00,
2013-10-01 22:04:00,53.8,41.9,29.92,WSW,244,0.0,0.0,64,0.00,,,0.00,VWS V14.01,2013-10-02 03:04:00,
2013-10-01 22:09:00,53.7,42.2,29.92,WSW,244,0.0,0.0,65,0.00,,,0.00,VWS V14.01,2013-10-02 03:09:00,
2013-10-01 22:14:00,53.5,41.6,29.93,WSW,244,0.0,0.0,64,0.00,,,0.00,VWS V14.01,2013-10-02 03:14:00,
2013-10-01 22:19:00,53.4,41.1,29.93,WSW,245,0.0,0.0,63,0.00,,,0.00,VWS V14.01,2013-10-02 03:19:00,
2013-10-01 22:24:00,53.2,41.3,29.93,WSW,244,0.0,0.0,64,0.00,,,0.00,VWS V14.01,2013-10-02 03:24:00,
2013-10-01 22:29:00,53.1,42.5,29.93,WSW,245,0.0,0.0,67,0.00,,,0.00,VWS V14.01,2013-10-02 03:29:00,
2013-10-01 22:34:00,53.0,43.1,29.93,WSW,245,0.0,0.0,69,0.00,,,0.00,VWS V14.01,2013-10-02 03:34:00,
2013-10-01 22:39:00,52.8,43.7,29.93,WSW,244,0.0,0.0,71,0.00,,,0.00,VWS V14.01,2013-10-02 03:39:00,
2013-10-01 22:44:00,52.7,42.8,29.94,WSW,245,0.0,0.0,69,0.00,,,0.00,VWS V14.01,2013-10-02 03:44:00,
2013-10-01 22:50:00,52.5,42.6,29.94,WSW,244,0.0,0.0,69,0.00,,,0.00,VWS V14.01,2013-10-02 03:50:00,
2013-10-01 22:55:00,52.4,43.3,29.94,WSW,244,0.0,0.0,71,0.00,,,0.00,VWS V14.01,2013-10-02 03:55:00,
2013-10-01 23:00:00,52.2,43.1,29.94,WSW,244,0.0,0.0,71,0.00,,,0.00,VWS V14.01,2013-10-02 04:00:00,
2013-10-01 23:01:00,52.2,42.7,29.94,WSW,245,0.0,0.0,70,0.00,,,0.00,VWS V14.01,2013-10-02 04:01:00,
2013-10-01 23:02:00,52.1,42.6,29.94,WSW,245,0.0,0.0,70,0.00,,,0.00,VWS V14.01,2013-10-02 04:02:00,
2013-10-01 23:03:00,52.1,42.6,29.94,WSW,245,0.0,0.0,70,0.00,,,0.00,VWS V14.01,2013-10-02 04:03:00,
2013-10-01 23:08:00,51.9,42.1,29.94,WSW,245,0.0,0.0,69,0.00,,,0.00,VWS V14.01,2013-10-02 04:08:00,
2013-10-01 23:13:00,51.7,41.9,29.95,WSW,244,0.0,0.0,69,0.00,,,0.00,VWS V14.01,2013-10-02 04:13:00,
2013-10-01 23:18:00,51.6,42.2,29.95,WSW,245,0.0,0.0,70,0.00,,,0.00,VWS V14.01,2013-10-02 04:18:00,
2013-10-01 23:23:00,51.4,42.3,29.95,WSW,244,0.0,0.0,71,0.00,,,0.00,VWS V14.01,2013-10-02 04:23:00,
2013-10-01 23:28:00,51.2,41.8,29.95,WSW,244,0.0,0.0,70,0.00,,,0.00,VWS V14.01,2013-10-02 04:28:00,
2013-10-01 23:33:00,51.1,41.7,29.95,WSW,244,0.0,0.0,70,0.00,,,0.00,VWS V14.01,2013-10-02 04:33:00,
2013-10-01 23:38:00,51.0,41.2,29.95,WSW,245,0.0,0.0,69,0.00,,,0.00,VWS V14.01,2013-10-02 04:38:00,
2013-10-01 23:44:00,51.0,41.2,29.96,WSW,244,0.0,0.0,69,0.00,,,0.00,VWS V14.01,2013-10-02 04:44:00,
2013-10-01 23:49:00,50.8,41.0,29.96,WSW,245,0.0,0.0,69,0.00,,,0.00,VWS V14.01,2013-10-02 04:49:00,
2013-10-01 23:54:00,50.7,41.3,29.96,WSW,244,0.0,0.0,70,0.00,,,0.00,VWS V14.01,2013-10-02 04:54:00,
2013-10-01 23:59:00,50.6,41.2,29.96,WSW,245,0.0,0.0,70,0.00,,,0.00,VWS V14.01,2013-10-02 04:59:00,